Location: Holyhead Bay
(53.3667°N, 4.6667°W)
Time: 18:48:55
(UTC+00:00)

RESURS 01 DEB - Visible Passes

Search period start: 22 June 2021 00:00
Search period end: 02 July 2021 00:00
Orbit: 621 x 626 km, 97.9° (Epoch: 21 June)

Date Brightness Start Highest point End Pass type
(mag) Time Alt. Az. Time Alt. Az. Time Alt. Az.
25 Jun ? 21:39:54 10° SW 21:43:02 19° W 21:46:10 10° NW visible
26 Jun ? 21:59:34 10° WSW 22:01:42 13° W 22:03:51 10° WNW visible
01 Jul ? 21:55:12 10° WSW 21:57:37 14° W 22:00:02 10° NW visible
